Volver al catálogo

FREGAT R/B

ActivoHEO
NORAD 45609·ROCKET BODY·🇷🇺 Russia

Lanzado May 22, 2020 desde Plesetsk Cosmodrome

Loading…

Próximos Pases (próximas 24 horas)

TLE

ActualizadoSource: Space-Track

Época: Sep 13, 2026, 21:14 UTC

1 45609U 20031B   26256.88512929 -.00001524  00000-0  00000+0 0  9997
2 45609  63.4783  50.9732 7224270 258.4256  19.7453  2.01457571 46448

Sigue FREGAT R/B en tiempo real con AllMySat

Download on the App Store